Weather in Terekhovo

Russia / Ryazan Oblast     54°24′20″N   40°56′16″E
temp.,
°C
wind,
m/s
gust,
m/s
humid.,
%
clouds,
%
prec.,
mm/h
press.,
hPa
HPBL,
m
25 february, thu
thu2500:00−17s5994100 0.4 1032402
03:00−15ssw61095100 0.7 1029407
06:00−13ssw61095100 1.6 1024415
09:00−10ssw81495100 4.3 1019454
12:00−3sw61197100 2.4 1015449
15:00+2w512100100 3.1 1012325
18:00+2wnw512100100 0.1 1012324
21:00+1wnw4999100 0.1 1013269
26 february, fri
fri2600:00+1w3799100 0.0 1013186
03:00+1wsw3899100 0.0 1012239
06:00+1wsw4999100 0.6 1011228
09:00+1wsw49100100 1.1 1009256
12:00+2wsw513100100 0.2 1007380
15:00+2wsw613100100 0.8 1005366
18:00+2w61599100 0.4 1003429
21:00+2w6159095 0.4 1003628
27 february, sat
sat2700:00+1w61493100 0.1 1002703
03:00+1w71490100 0.1 1001688
06:000w71398100 0.1 1000621
09:00+1w61396100 0.1 1000817
12:000wnw712100100 0.3 1000663
15:00−5nnw71088100 0.9 1002842
18:00−9nnw51189100 0.1 1005675
21:00−11nnw51091100 0.1 1009580
28 february, sun
sun2800:00−13nnw4109297 0.0 1011421
03:00−14nnw4109493 0.0 1013324
06:00−15nnw379421 0.0 1014192
09:00−14nnw489113 0.0 1016363
12:00−11nnw468845 0.0 1017525
15:00−9nnw478773 0.0 1018640
18:00−9n4890100 0.1 1020489
21:00−13n339480 0.1 102254
1 march, mon
mon100:00−14nnw23960 0.0 102424
03:00−15nnw22960 0.0 102521
06:00−15nw229749 0.0 102620
09:00−11w229655 0.0 102678
12:00−6wsw359580 0.0 1025281
15:00−3wsw599290 0.0 1023487
18:00−2wsw51196100 0.1 1020503
21:00−1wsw71295100 0.3 1017526